Plattsburgh, NY

1:31 AM EST on December 07, 2019 (GMT -0500)
Plattsburgh International

Weather History for KPBG - October, 2019

Change the Weather History Date:

Saturday, October 26, 2019

  Actual Average Record
Temperature  
Mean Temperature 43 °F 44 °F  
Max Temperature 53 °F 54 °F 75 °F (1963)
Min Temperature 33 °F 34 °F 20 °F (1956)
Degree Days  
Heating Degree Days 22 21  
Month to date heating degree days 410 436  
Since 1 July heating degree days 602 671  
Cooling Degree Days 0 0  
Month to date cooling degree days 0 0  
Year to date cooling degree days 406 345  
Moisture  
Dew Point 37 °F    
Average Humidity 83    
Maximum Humidity 100    
Minimum Humidity 50    
Precipitation  
Precipitation T in - 1.06 in (1967)
Month to date precipitation 3.34 0.00  
Year to date precipitation 24.96  
Sea Level Pressure  
Sea Level Pressure 30.23 in    
Wind  
Wind Speed 2 mph ()    
Max Wind Speed 12 mph    
Max Gust Speed 13 mph    
Visibility 8.6 miles    
Events      
T = Trace of Precipitation, MM = Missing Value Source: Averaged Metar Reports

Daily Weather History Graph

Daily Weather History Graph

Search for Another Location

Airport or City:

Astronomy

Oct. 26, 2019 Rise Set
Actual Time 7:23 AM EDT 5:51 PM EDT
Civil Twilight 6:53 AM EDT 6:21 PM EDT
Nautical Twilight 6:19 AM EDT 6:55 PM EDT
Astronomical Twilight 5:45 AM EDT 7:29 PM EDT
Moon 5:07 AM EDT (10/26) 5:32 PM EDT (10/26)
Length of Visible Light 11h 28m
Length of Day
10h 28m
Waning Crescent, 3% of the Moon is Illuminated
Oct 26
Waning Crescent
Oct 27
New
Nov 4
First Quarter
Nov 12
Full
Nov 19
Last Quarter

Hourly Weather History & Observations

Time (EDT) Temp. Windchill Dew Point Humidity Pressure Visibility Wind Dir Wind Speed Gust Speed Precip Events Conditions
12:24 AM 46.0 °F 44.8 °F 41.0 °F 83% 30.17 in 10.0 mi WSW 3.5 mph - N/A   Overcast
12:53 AM 45.0 °F 43.5 °F 43.0 °F 93% 30.18 in 10.0 mi SW 3.5 mph - N/A   Overcast
1:07 AM 45.0 °F - 42.1 °F 90% 30.17 in 10.0 mi Calm Calm - N/A   Overcast
1:53 AM 45.0 °F - 42.1 °F 90% 30.18 in 10.0 mi Calm Calm - 0.00 in   Overcast
2:53 AM 43.0 °F 41.3 °F 41.0 °F 93% 30.18 in 10.0 mi WSW 3.5 mph - N/A   Clear
3:53 AM 41.0 °F 39.0 °F 39.9 °F 96% 30.19 in 10.0 mi Variable 3.5 mph - N/A   Overcast
4:14 AM 37.9 °F - 37.0 °F 97% 30.18 in 1.8 mi Calm Calm - N/A   Partly Cloudy
4:22 AM 37.9 °F - 37.0 °F 97% 30.19 in 3.0 mi Calm Calm - N/A   Clear
4:45 AM 37.9 °F - 37.0 °F 97% 30.19 in 2.5 mi Calm Calm - N/A   Scattered Clouds
4:53 AM 37.9 °F 35.5 °F 37.0 °F 97% 30.20 in 10.0 mi WSW 3.5 mph - N/A   Mostly Cloudy
5:39 AM 36.0 °F - 35.1 °F 97% 30.20 in 1.8 mi Calm Calm - N/A   Scattered Clouds
5:47 AM 35.6 °F - 35.6 °F 100% 30.20 in 3.0 mi Calm Calm - N/A   Partly Cloudy
5:53 AM 36.0 °F - 35.1 °F 97% 30.22 in 4.0 mi Calm Calm - N/A   Clear
6:53 AM 37.0 °F - 35.1 °F 93% 30.24 in 10.0 mi Calm Calm - N/A   Mostly Cloudy
7:53 AM 36.0 °F - 35.1 °F 97% 30.26 in 10.0 mi Calm Calm - N/A   Clear
8:53 AM 41.0 °F - 37.9 °F 89% 30.28 in 10.0 mi Calm Calm - N/A   Scattered Clouds
9:53 AM 48.9 °F - 39.0 °F 69% 30.29 in 10.0 mi NNW 6.9 mph - N/A   Scattered Clouds
10:53 AM 51.1 °F - 37.9 °F 61% 30.28 in 10.0 mi Variable 6.9 mph - N/A   Mostly Cloudy
11:53 AM 51.1 °F - 36.0 °F 56% 30.27 in 10.0 mi North 8.1 mph - N/A   Scattered Clouds
12:53 PM 52.0 °F - 37.9 °F 59% 30.27 in 10.0 mi SSE 9.2 mph - N/A   Mostly Cloudy
1:53 PM 52.0 °F - 35.1 °F 53% 30.26 in 10.0 mi East 9.2 mph - N/A   Clear
2:53 PM 53.1 °F - 35.1 °F 50% 30.26 in 10.0 mi ESE 6.9 mph - N/A   Clear
3:53 PM 52.0 °F - 37.0 °F 57% 30.27 in 10.0 mi SSE 6.9 mph - N/A   Clear
4:53 PM 51.1 °F - 36.0 °F 56% 30.26 in 10.0 mi SSE 3.5 mph - N/A   Clear
5:53 PM 46.9 °F - 37.0 °F 68% 30.27 in 10.0 mi Calm Calm - N/A   Clear
6:53 PM 43.0 °F - 37.0 °F 80% 30.27 in 10.0 mi Calm Calm - N/A   Clear
7:53 PM 37.9 °F 35.5 °F 36.0 °F 93% 30.26 in 10.0 mi NNE 3.5 mph - N/A   Clear
8:53 PM 37.9 °F - 35.1 °F 89% 30.26 in 10.0 mi Calm Calm - N/A   Clear
9:53 PM 36.0 °F - 34.0 °F 93% 30.26 in 10.0 mi Calm Calm - N/A   Clear
10:53 PM 35.1 °F - 33.1 °F 92% 30.25 in 10.0 mi Calm Calm - N/A   Clear
11:53 PM 35.1 °F - 33.1 °F 92% 30.24 in 10.0 mi Calm Calm - N/A   Clear